| time (UTC) | temp C | wind direction | speed KPH | gust KPH | rain 1hr cm | rain 24hr cm | rain mn cm | humidity % | barometer mb |
| 20260831152912 | 11 | 70 | 0.0 | 3.2 | 0.00 | 0.00 | 0.00 | 100 | |
| 20260831151912 | 11 | 71 | 0.0 | 0.0 | 0.00 | 0.00 | 0.00 | 100 | |
| 20260831150911 | 11 | 71 | 0.0 | 0.0 | 0.00 | 0.00 | 0.00 | 99 | |
| 20260831150052 | 12 | 71 | 0.0 | 0.0 | 0.00 | 0.00 | 0.00 | 97 | |
| 20260831145910 | 12 | 71 | 0.0 | 0.0 | 0.00 | 0.00 | 0.00 | 97 | |
| 20260831144909 | 12 | 71 | 0.0 | 0.0 | 0.00 | 0.00 | 0.00 | 95 | |
| 20260831143909 | 12 | 71 | 0.0 | 0.0 | 0.00 | 0.00 | 0.00 | 94 | |
| 20260831142908 | 12 | 71 | 0.0 | 0.0 | 0.00 | 0.00 | 0.00 | 94 | |
| 20260831141908 | 12 | 71 | 0.0 | 0.0 | 0.00 | 0.00 | 0.00 | 94 | |
| 20260831140907 | 12 | 71 | 0.0 | 0.0 | 0.00 | 0.00 | 0.00 | 94 | |
| 20260831135907 | 13 | 71 | 0.0 | 0.0 | 0.00 | 0.00 | 0.00 | 92 | |
| 20260831134906 | 13 | 71 | 0.0 | 0.0 | 0.00 | 0.00 | 0.00 | 88 | |
| 20260831134521 | 14 | 71 | 0.0 | 0.0 | 0.00 | 0.00 | 0.00 | 85 | |
| 20260831133906 | 14 | 71 | 0.0 | 0.0 | 0.00 | 0.00 | 0.00 | 85 | |
| 20260831132905 | 15 | 71 | 0.0 | 0.0 | 0.00 | 0.00 | 0.00 | 78 | |
| 20260831131904 | 16 | 71 | 0.0 | 0.0 | 0.00 | 0.00 | 0.00 | 75 | |
| 20260831130905 | 17 | 71 | 0.0 | 0.0 | 0.00 | 0.00 | 0.00 | 72 | |
| 20260831125903 | 17 | 71 | 0.0 | 0.0 | 0.00 | 0.00 | 0.00 | 70 | |
| 20260831124903 | 18 | 71 | 0.0 | 0.0 | 0.00 | 0.00 | 0.00 | 67 | |
| 20260831123902 | 17 | 71 | 0.0 | 0.0 | 0.00 | 0.00 | 0.00 | 70 | |
| 20260831122901 | 16 | 71 | 0.0 | 0.0 | 0.00 | 0.00 | 0.00 | 74 | |
| 20260831121901 | 16 | 71 | 0.0 | 0.0 | 0.00 | 0.00 | 0.00 | 76 | |
| 20260831120901 | 16 | 71 | 0.0 | 0.0 | 0.00 | 0.00 | 0.00 | 78 | |
| 20260831115900 | 15 | 71 | 0.0 | 0.0 | 0.00 | 0.00 | 0.00 | 79 | |
| 20260831114859 | 16 | 71 | 0.0 | 0.0 | 0.00 | 0.00 | 0.00 | 77 | |
| 20260831113901 | 17 | 71 | 0.0 | 0.0 | 0.00 | 0.00 | 0.00 | 72 | |
| 20260831112858 | 17 | 71 | 0.0 | 0.0 | 0.00 | 0.00 | 0.00 | 73 | |
| 20260831111857 | 16 | 71 | 0.0 | 0.0 | 0.00 | 0.00 | 0.00 | 78 | |
| 20260831110857 | 16 | 71 | 0.0 | 0.0 | 0.00 | 0.00 | 0.00 | 80 | |
| 20260831105856 | 16 | 71 | 0.0 | 0.0 | 0.00 | 0.00 | 0.00 | 79 | |
| 20260831104855 | 15 | 71 | 0.0 | 0.0 | 0.00 | 0.00 | 0.00 | 80 | |
| 20260831103856 | 15 | 71 | 0.0 | 0.0 | 0.00 | 0.00 | 0.00 | 81 | |
| 20260831102854 | 15 | 71 | 0.0 | 4.8 | 0.00 | 0.00 | 0.00 | 77 | |
| 20260831101854 | 16 | 63 | 0.0 | 0.0 | 0.00 | 0.00 | 0.00 | 76 | |
| 20260831100853 | 16 | 63 | 0.0 | 0.0 | 0.00 | 0.00 | 0.00 | 72 | |
| 20260831095853 | 16 | 63 | 0.0 | 0.0 | 0.00 | 0.00 | 0.00 | 71 | |
| 20260831094852 | 18 | 67 | 0.0 | 0.0 | 0.00 | 0.00 | 0.00 | 65 | |
| 20260831093852 | 18 | 73 | 3.2 | 3.2 | 0.00 | 0.00 | 0.00 | 66 | |
| 20260831092851 | 16 | 180 | 0.0 | 0.0 | 0.00 | 0.00 | 0.00 | 72 | |
| 20260831091850 | 16 | 180 | 0.0 | 0.0 | 0.00 | 0.00 | 0.00 | 73 | |
| 20260831090850 | 17 | 180 | 0.0 | 0.0 | 0.00 | 0.00 | 0.00 | 100 | |
| 20260831084852 | 21 | 67 | 0.0 | 0.0 | 0.00 | 0.00 | 0.00 | 55 | |
| 20260831083852 | 21 | 71 | 0.0 | 0.0 | 0.00 | 0.00 | 0.00 | 55 | |
| 20260831082850 | 22 | 71 | 0.0 | 0.0 | 0.00 | 0.00 | 0.00 | 48 | |
| 20260831081850 | 22 | 71 | 0.0 | 0.0 | 0.00 | 0.00 | 0.00 | 49 | |
| 20260831080850 | 22 | 71 | 0.0 | 9.7 | 0.00 | 0.00 | 0.00 | 49 | |
| 20260831075849 | 21 | 81 | 0.0 | 0.0 | 0.00 | 0.00 | 0.00 | 55 | |
| 20260831074848 | 18 | 81 | 0.0 | 0.0 | 0.00 | 0.00 | 0.00 | 63 | |
| 20260831073847 | 15 | 81 | 0.0 | 0.0 | 0.00 | 0.00 | 0.00 | 73 | |
| 20260831072847 | 12 | 63 | 0.0 | 27.4 | 0.00 | 0.00 | 0.00 | 81 | |
| 20260831071846 | 12 | 97 | 0.0 | 22.5 | 0.00 | 0.00 | 0.00 | 78 | |
| 20260831070846 | 12 | 74 | 6.4 | 8.0 | 0.00 | 0.00 | 0.00 | 82 | |
| 20260831065845 | 12 | 68 | 1.6 | 12.9 | 0.00 | 0.00 | 0.00 | 79 | |
| 20260831064845 | 11 | 77 | 1.6 | 14.5 | 0.00 | 0.00 | 0.00 | 83 | |
| 20260831063844 | 11 | 74 | 9.7 | 11.3 | 0.00 | 0.00 | 0.00 | 100 | |
| 20260831062843 | 11 | 81 | 1.6 | 9.7 | 0.00 | 0.00 | 0.00 | 78 | |
| 20260831061843 | 11 | 61 | 0.0 | 11.3 | 0.00 | 0.00 | 0.00 | 80 | |
| 20260831060842 | 11 | 67 | 6.4 | 24.1 | 0.00 | 0.00 | 0.00 | 76 | |
| 20260831055842 | 11 | 75 | 4.8 | 27.4 | 0.00 | 0.00 | 0.00 | 70 | |
| 20260831054841 | 11 | 71 | 4.8 | 22.5 | 0.00 | 0.00 | 0.00 | 68 | |
| 20260831053840 | 11 | 68 | 19.3 | 24.1 | 0.00 | 0.00 | 0.00 | 69 | |
| 20260831052841 | 10 | 78 | 6.4 | 33.8 | 0.00 | 0.00 | 0.00 | 73 | |
| 20260831051839 | 9 | 71 | 14.5 | 40.2 | 0.00 | 0.00 | 0.00 | 100 |